Change the Weather History Date:

Friday, July 12, 2013

  Actual Average Record
Temperature  
Mean Temperature 72 °F -  
Max Temperature 77 °F 84 °F 100 °F (1988)
Min Temperature 68 °F 61 °F 32 °F (2005)
Cooling Degree Days 8    
Growing Degree Days 22 (Base 50)    
Moisture  
Dew Point 65 °F    
Average Humidity 81    
Maximum Humidity 94    
Minimum Humidity 65    
Precipitation  
Precipitation 0.01 in - - ()
Sea Level Pressure  
Sea Level Pressure 30.01 in    
Wind  
Wind Speed 3 mph (NE)    
Max Wind Speed 13 mph    
Max Gust Speed 20 mph    
Visibility 9 miles    
Events Rain    
Averages and records for this station are not official NWS values.
T = Trace of Precipitation, MM = Missing Value Source: NWS Daily Summary

Daily Weather History Graph

Daily Weather History Graph

Search for Another Location

Airport or City:

Trip Planner

Search our weather history database for the weather conditions in past years. The results will help you decide how hot, cold, wet, or windy it might be!

Date:

Astronomy

Jul. 12, 2013 Rise Set
Actual Time 5:36 AM EDT 8:29 PM EDT
Civil Twilight 5:04 AM EDT 9:01 PM EDT
Nautical Twilight 4:23 AM EDT 9:42 PM EDT
Astronomical Twilight 3:35 AM EDT 10:30 PM EDT
Moon 9:53 AM EDT (7/12) 10:36 PM EDT (7/12)
Length of Visible Light 15h 57m
Length of Day
14h 52m
Waxing Crescent, 17% of the Moon is Illuminated
Jul 12
Waxing Crescent
Jul 15
First Quarter
Jul 22
Full
Jul 29
Last Quarter
Aug 6
New

Hourly Weather History & Observations

Time (EDT) Temp. Dew Point Humidity Pressure Visibility Wind Dir Wind Speed Gust Speed Precip Events Conditions
12:15 AM 69.8 °F 66.2 °F 88% 29.94 in 10.0 mi Calm Calm - N/A   Mostly Cloudy
12:35 AM 71.6 °F 66.2 °F 83% 29.94 in 10.0 mi Calm Calm - N/A   Overcast
12:55 AM 69.8 °F 66.2 °F 88% 29.94 in 10.0 mi Calm Calm - N/A   Overcast
1:15 AM 69.8 °F 64.4 °F 83% 29.94 in 10.0 mi Calm Calm - N/A   Scattered Clouds
1:35 AM 69.8 °F 64.4 °F 83% 29.94 in 10.0 mi Calm Calm - N/A   Mostly Cloudy
1:55 AM 71.6 °F 64.4 °F 78% 29.95 in 10.0 mi Calm Calm - N/A   Scattered Clouds
2:15 AM 69.8 °F 64.4 °F 83% 29.94 in 10.0 mi Calm Calm - N/A   Clear
2:35 AM 69.8 °F 64.4 °F 83% 29.95 in 10.0 mi Calm Calm - N/A   Clear
2:55 AM 68.0 °F 64.4 °F 88% 29.95 in 10.0 mi Calm Calm - N/A   Clear
3:15 AM 69.8 °F 64.4 °F 83% 29.95 in 10.0 mi Calm Calm - N/A   Mostly Cloudy
3:35 AM 69.8 °F 64.4 °F 83% 29.96 in 10.0 mi NNE 3.5 mph - N/A   Overcast
3:55 AM 69.8 °F 62.6 °F 78% 29.96 in 10.0 mi Calm Calm - N/A   Mostly Cloudy
4:15 AM 69.8 °F 64.4 °F 83% 29.97 in 10.0 mi Calm Calm - N/A   Mostly Cloudy
4:35 AM 69.8 °F 62.6 °F 78% 29.97 in 10.0 mi Calm Calm - N/A   Overcast
4:55 AM 69.8 °F 62.6 °F 78% 29.97 in 10.0 mi NNE 3.5 mph - N/A   Mostly Cloudy
5:15 AM 69.8 °F 62.6 °F 78% 29.98 in 10.0 mi NNE 3.5 mph - N/A   Mostly Cloudy
5:35 AM 69.8 °F 62.6 °F 78% 29.98 in 7.0 mi NNE 3.5 mph - N/A   Mostly Cloudy
5:55 AM 69.8 °F 60.8 °F 73% 29.99 in 10.0 mi North 3.5 mph - N/A   Mostly Cloudy
6:15 AM 71.6 °F 60.8 °F 69% 30.00 in 10.0 mi North 3.5 mph - N/A   Scattered Clouds
6:35 AM 71.6 °F 62.6 °F 73% 30.00 in 10.0 mi NNE 3.5 mph - N/A   Clear
6:45 AM 68.0 °F 62.6 °F 83% 30.00 in 10.0 mi NE 4.6 mph - N/A   Scattered Clouds
7:45 AM 71.6 °F 62.6 °F 73% 30.01 in 10.0 mi NE 9.2 mph - N/A   Mostly Cloudy
8:45 AM 73.4 °F 64.4 °F 73% 30.02 in 10.0 mi NE 6.9 mph - N/A   Mostly Cloudy
9:45 AM 77.0 °F 64.4 °F 65% 30.03 in 10.0 mi ENE 6.9 mph 17.3 mph N/A   Mostly Cloudy
10:45 AM 77.0 °F 64.4 °F 65% 30.04 in 10.0 mi East 12.7 mph 19.6 mph N/A   Mostly Cloudy
11:45 AM 77.0 °F 64.4 °F 65% 30.04 in 10.0 mi ENE 10.4 mph 17.3 mph N/A   Mostly Cloudy
12:45 PM 77.0 °F 66.2 °F 69% 30.04 in 10.0 mi East 12.7 mph 17.3 mph N/A   Overcast
1:45 PM 77.0 °F 66.2 °F 69% 30.05 in 10.0 mi East 10.4 mph - N/A   Overcast
2:45 PM 75.2 °F 66.2 °F 73% 30.05 in 10.0 mi East 9.2 mph 16.1 mph N/A   Overcast
3:45 PM 73.4 °F 68.0 °F 83% 30.05 in 5.0 mi ENE 5.8 mph - N/A Rain Light Rain
4:45 PM 73.4 °F 69.8 °F 88% 30.04 in 5.0 mi NE 4.6 mph - N/A Rain Light Rain
5:45 PM 71.6 °F 69.8 °F 94% 30.05 in 5.0 mi NNE 4.6 mph - N/A Rain Light Rain
6:45 PM 73.4 °F 69.8 °F 88% 30.05 in 7.0 mi East 5.8 mph - N/A   Overcast
7:45 PM 71.6 °F 68.0 °F 88% 30.06 in 7.0 mi ENE 6.9 mph - N/A   Overcast
8:45 PM 71.6 °F 68.0 °F 88% 30.07 in 4.0 mi East 8.1 mph - N/A Rain Light Rain
9:45 PM 69.8 °F 68.0 °F 94% 30.09 in 2.5 mi East 9.2 mph - N/A Rain Rain
10:55 PM 71.6 °F 68.0 °F 88% 30.09 in 7.0 mi NE 5.8 mph - N/A Rain Light Rain
11:15 PM 71.6 °F 68.0 °F 88% 30.10 in 7.0 mi ENE 5.8 mph - N/A   Light Drizzle
11:35 PM 71.6 °F 68.0 °F 88% 30.10 in 7.0 mi NE 8.1 mph - 0.01 in Rain Rain
11:55 PM 69.8 °F 66.2 °F 88% 30.11 in 10.0 mi NE 5.8 mph - N/A   Overcast